Index of /20260430/WXO-DD/model_gdps/15km/12/225
Name Last modified Size Description
Parent Directory -
20260430T12Z_MSC_GDPS_AirTemp_AGL-120m_LatLon0.15_PT225H.grib2 2026-04-30 16:34 912K
20260430T12Z_MSC_GDPS_AirTemp_AGL-2m_LatLon0.15_PT225H.grib2 2026-04-30 16:34 1.0M
20260430T12Z_MSC_GDPS_AirTemp_AGL-40m_LatLon0.15_PT225H.grib2 2026-04-30 16:34 816K
20260430T12Z_MSC_GDPS_AirTemp_AGL-80m_LatLon0.15_PT225H.grib2 2026-04-30 16:34 921K
20260430T12Z_MSC_GDPS_AirTemp_IsbL-0001_LatLon0.15_PT225H.grib2 2026-04-30 16:34 666K
20260430T12Z_MSC_GDPS_AirTemp_IsbL-0005_LatLon0.15_PT225H.grib2 2026-04-30 16:34 537K
20260430T12Z_MSC_GDPS_AirTemp_IsbL-0500_LatLon0.15_PT225H.grib2 2026-04-30 16:34 1.0M
20260430T12Z_MSC_GDPS_AirTemp_IsbL-0700_LatLon0.15_PT225H.grib2 2026-04-30 16:34 956K
20260430T12Z_MSC_GDPS_AirTemp_IsbL-0850_LatLon0.15_PT225H.grib2 2026-04-30 16:34 1.1M
20260430T12Z_MSC_GDPS_AirTemp_IsbL-0925_LatLon0.15_PT225H.grib2 2026-04-30 16:34 1.1M
20260430T12Z_MSC_GDPS_AirTemp_IsbL-1000_LatLon0.15_PT225H.grib2 2026-04-30 16:34 1.1M
20260430T12Z_MSC_GDPS_Albedo_Sfc_LatLon0.15_PT225H.grib2 2026-04-30 16:34 244K
20260430T12Z_MSC_GDPS_ConvectivePrecip-Accum_Sfc_LatLon0.15_PT225H.grib2 2026-04-30 16:34 3.8M
20260430T12Z_MSC_GDPS_DewPointDepression_AGL-2m_LatLon0.15_PT225H.grib2 2026-04-30 16:34 764K
20260430T12Z_MSC_GDPS_DewPointDepression_IsbL-0500_LatLon0.15_PT225H.grib2 2026-04-30 16:34 1.0M
20260430T12Z_MSC_GDPS_DewPointDepression_IsbL-0700_LatLon0.15_PT225H.grib2 2026-04-30 16:34 1.1M
20260430T12Z_MSC_GDPS_DewPointDepression_IsbL-0850_LatLon0.15_PT225H.grib2 2026-04-30 16:34 1.2M
20260430T12Z_MSC_GDPS_DewPointDepression_IsbL-0925_LatLon0.15_PT225H.grib2 2026-04-30 16:34 1.0M
20260430T12Z_MSC_GDPS_DewPointDepression_IsbL-1000_LatLon0.15_PT225H.grib2 2026-04-30 16:34 1.0M
20260430T12Z_MSC_GDPS_DewPoint_AGL-2m_LatLon0.15_PT225H.grib2 2026-04-30 16:34 611K
20260430T12Z_MSC_GDPS_DownwardLongwaveRadiationFlux-Accum_Sfc_LatLon0.15_PT225H.grib2 2026-04-30 16:34 734K
20260430T12Z_MSC_GDPS_DownwardShortwaveRadiationFlux-Accum_Sfc_LatLon0.15_PT225H.grib2 2026-04-30 16:34 905K
20260430T12Z_MSC_GDPS_FreezingRain-Accum_Sfc_LatLon0.15_PT225H.grib2 2026-04-30 16:34 460K
20260430T12Z_MSC_GDPS_GeopotentialHeight_IsbL-0001_LatLon0.15_PT225H.grib2 2026-04-30 16:34 439K
20260430T12Z_MSC_GDPS_GeopotentialHeight_IsbL-0005_LatLon0.15_PT225H.grib2 2026-04-30 16:34 495K
20260430T12Z_MSC_GDPS_GeopotentialHeight_IsbL-0500_LatLon0.15_PT225H.grib2 2026-04-30 16:34 604K
20260430T12Z_MSC_GDPS_GeopotentialHeight_IsbL-0700_LatLon0.15_PT225H.grib2 2026-04-30 16:34 694K
20260430T12Z_MSC_GDPS_GeopotentialHeight_IsbL-0850_LatLon0.15_PT225H.grib2 2026-04-30 16:34 714K
20260430T12Z_MSC_GDPS_GeopotentialHeight_IsbL-0925_LatLon0.15_PT225H.grib2 2026-04-30 16:34 737K
20260430T12Z_MSC_GDPS_GeopotentialHeight_IsbL-1000_LatLon0.15_PT225H.grib2 2026-04-30 16:34 791K
20260430T12Z_MSC_GDPS_IcePellets-Accum_Sfc_LatLon0.15_PT225H.grib2 2026-04-30 16:34 194K
20260430T12Z_MSC_GDPS_LatentHeatNetFlux_Sfc_LatLon0.15_PT225H.grib2 2026-04-30 16:34 678K
20260430T12Z_MSC_GDPS_NetLongwaveRadiationFlux-Accum_Sfc_LatLon0.15_PT225H.grib2 2026-04-30 16:34 931K
20260430T12Z_MSC_GDPS_NetShortwaveRadiationFlux-Accum_Sfc_LatLon0.15_PT225H.grib2 2026-04-30 16:34 904K
20260430T12Z_MSC_GDPS_O3MixingRatio_Sfc_LatLon0.15_PT225H.grib2 2026-04-30 16:46 1.9M
20260430T12Z_MSC_GDPS_O3_EAtm_LatLon0.15_PT225H.grib2 2026-04-30 16:46 2.4M
20260430T12Z_MSC_GDPS_PlanetaryBoundaryLayerHeight_Sfc_LatLon0.15_PT225H.grib2 2026-04-30 16:34 2.4M
20260430T12Z_MSC_GDPS_Precip-Accum_Sfc_LatLon0.15_PT225H.grib2 2026-04-30 16:34 5.5M
20260430T12Z_MSC_GDPS_PrecipRate_Sfc_LatLon0.15_PT225H.grib2 2026-04-30 16:34 3.0M
20260430T12Z_MSC_GDPS_Pressure_MSL_LatLon0.15_PT225H.grib2 2026-04-30 16:34 726K
20260430T12Z_MSC_GDPS_Pressure_Sfc_LatLon0.15_PT225H.grib2 2026-04-30 16:34 1.1M
20260430T12Z_MSC_GDPS_RadiativeTemp_Sfc_LatLon0.15_PT225H.grib2 2026-04-30 16:34 665K
20260430T12Z_MSC_GDPS_Rain-Accum_Sfc_LatLon0.15_PT225H.grib2 2026-04-30 16:34 4.3M
20260430T12Z_MSC_GDPS_RelativeHumidity_AGL-2m_LatLon0.15_PT225H.grib2 2026-04-30 16:34 1.0M
20260430T12Z_MSC_GDPS_Runoff-Accum_Sfc_LatLon0.15_PT225H.grib2 2026-04-30 16:34 138K
20260430T12Z_MSC_GDPS_SensibleHeatNetFlux_Sfc_LatLon0.15_PT225H.grib2 2026-04-30 16:34 614K
20260430T12Z_MSC_GDPS_Snow-Accum_Sfc_LatLon0.15_PT225H.grib2 2026-04-30 16:34 2.1M
20260430T12Z_MSC_GDPS_SnowDepth_Sfc_LatLon0.15_PT225H.grib2 2026-04-30 16:34 1.7M
20260430T12Z_MSC_GDPS_SoilTemp_DBS-0to10cm_LatLon0.15_PT225H.grib2 2026-04-30 16:34 517K
20260430T12Z_MSC_GDPS_SoilTemp_Sfc_LatLon0.15_PT225H.grib2 2026-04-30 16:34 582K
20260430T12Z_MSC_GDPS_SoilVolumetricWaterContent_DBS-0to10cm_LatLon0.15_PT225H.grib2 2026-04-30 16:34 596K
20260430T12Z_MSC_GDPS_SoilVolumetricWaterContent_DBS-0to1cm_LatLon0.15_PT225H.grib2 2026-04-30 16:34 648K
20260430T12Z_MSC_GDPS_SpecificHumidity_AGL-120m_LatLon0.15_PT225H.grib2 2026-04-30 16:34 1.1M
20260430T12Z_MSC_GDPS_SpecificHumidity_AGL-2m_LatLon0.15_PT225H.grib2 2026-04-30 16:34 1.2M
20260430T12Z_MSC_GDPS_SpecificHumidity_AGL-40m_LatLon0.15_PT225H.grib2 2026-04-30 16:34 1.1M
20260430T12Z_MSC_GDPS_SpecificHumidity_AGL-80m_LatLon0.15_PT225H.grib2 2026-04-30 16:34 1.1M
20260430T12Z_MSC_GDPS_SpecificHumidity_IsbL-0001_LatLon0.15_PT225H.grib2 2026-04-30 16:34 1.1M
20260430T12Z_MSC_GDPS_SpecificHumidity_IsbL-0005_LatLon0.15_PT225H.grib2 2026-04-30 16:34 1.0M
20260430T12Z_MSC_GDPS_SpecificHumidity_IsbL-0500_LatLon0.15_PT225H.grib2 2026-04-30 16:34 1.5M
20260430T12Z_MSC_GDPS_SpecificHumidity_IsbL-0700_LatLon0.15_PT225H.grib2 2026-04-30 16:34 1.6M
20260430T12Z_MSC_GDPS_SpecificHumidity_IsbL-0850_LatLon0.15_PT225H.grib2 2026-04-30 16:34 2.0M
20260430T12Z_MSC_GDPS_SpecificHumidity_IsbL-0925_LatLon0.15_PT225H.grib2 2026-04-30 16:34 1.6M
20260430T12Z_MSC_GDPS_SpecificHumidity_IsbL-1000_LatLon0.15_PT225H.grib2 2026-04-30 16:34 1.5M
20260430T12Z_MSC_GDPS_SpecificHumidity_Sfc_LatLon0.15_PT225H.grib2 2026-04-30 16:34 675K
20260430T12Z_MSC_GDPS_Thickness_IsbL-0850to0700_LatLon0.15_PT225H.grib2 2026-04-30 16:34 469K
20260430T12Z_MSC_GDPS_Thickness_IsbL-1000to0500_LatLon0.15_PT225H.grib2 2026-04-30 16:34 376K
20260430T12Z_MSC_GDPS_Thickness_IsbL-1000to0850_LatLon0.15_PT225H.grib2 2026-04-30 16:34 492K
20260430T12Z_MSC_GDPS_TotalCloudCover_Sfc_LatLon0.15_PT225H.grib2 2026-04-30 16:34 845K
20260430T12Z_MSC_GDPS_UVIndex-ClearSky_Sfc_LatLon0.15_PT225H.grib2 2026-04-30 16:46 1.0M
20260430T12Z_MSC_GDPS_UVIndex_Sfc_LatLon0.15_PT225H.grib2 2026-04-30 16:46 1.5M
20260430T12Z_MSC_GDPS_UpwardLongwaveRadiationFlux_NTAtm_LatLon0.15_PT225H.grib2 2026-04-30 16:34 839K
20260430T12Z_MSC_GDPS_VerticalVelocity_IsbL-0500_LatLon0.15_PT225H.grib2 2026-04-30 16:34 1.0M
20260430T12Z_MSC_GDPS_VerticalVelocity_IsbL-0700_LatLon0.15_PT225H.grib2 2026-04-30 16:34 1.1M
20260430T12Z_MSC_GDPS_VerticalVelocity_IsbL-0850_LatLon0.15_PT225H.grib2 2026-04-30 16:34 1.6M
20260430T12Z_MSC_GDPS_WindDir_AGL-10m_LatLon0.15_PT225H.grib2 2026-04-30 16:34 1.3M
20260430T12Z_MSC_GDPS_WindDir_AGL-120m_LatLon0.15_PT225H.grib2 2026-04-30 16:34 1.3M
20260430T12Z_MSC_GDPS_WindDir_AGL-40m_LatLon0.15_PT225H.grib2 2026-04-30 16:34 1.4M
20260430T12Z_MSC_GDPS_WindDir_AGL-80m_LatLon0.15_PT225H.grib2 2026-04-30 16:34 1.4M
20260430T12Z_MSC_GDPS_WindDir_IsbL-0001_LatLon0.15_PT225H.grib2 2026-04-30 16:34 660K
20260430T12Z_MSC_GDPS_WindDir_IsbL-0005_LatLon0.15_PT225H.grib2 2026-04-30 16:34 802K
20260430T12Z_MSC_GDPS_WindDir_IsbL-0500_LatLon0.15_PT225H.grib2 2026-04-30 16:34 1.4M
20260430T12Z_MSC_GDPS_WindDir_IsbL-0700_LatLon0.15_PT225H.grib2 2026-04-30 16:34 1.6M
20260430T12Z_MSC_GDPS_WindDir_IsbL-0850_LatLon0.15_PT225H.grib2 2026-04-30 16:34 1.9M
20260430T12Z_MSC_GDPS_WindDir_IsbL-0925_LatLon0.15_PT225H.grib2 2026-04-30 16:34 2.0M
20260430T12Z_MSC_GDPS_WindDir_IsbL-1000_LatLon0.15_PT225H.grib2 2026-04-30 16:34 2.1M
20260430T12Z_MSC_GDPS_WindGust-Max_AGL-10m_LatLon0.15_PT225H.grib2 2026-04-30 16:34 2.2M
20260430T12Z_MSC_GDPS_WindGust-Min_AGL-10m_LatLon0.15_PT225H.grib2 2026-04-30 16:34 2.2M
20260430T12Z_MSC_GDPS_WindGust_AGL-10m_LatLon0.15_PT225H.grib2 2026-04-30 16:34 2.2M
20260430T12Z_MSC_GDPS_WindSpeed_AGL-10m_LatLon0.15_PT225H.grib2 2026-04-30 16:34 1.1M
20260430T12Z_MSC_GDPS_WindSpeed_AGL-120m_LatLon0.15_PT225H.grib2 2026-04-30 16:34 1.3M
20260430T12Z_MSC_GDPS_WindSpeed_AGL-40m_LatLon0.15_PT225H.grib2 2026-04-30 16:34 1.2M
20260430T12Z_MSC_GDPS_WindSpeed_AGL-80m_LatLon0.15_PT225H.grib2 2026-04-30 16:34 1.3M
20260430T12Z_MSC_GDPS_WindSpeed_IsbL-0001_LatLon0.15_PT225H.grib2 2026-04-30 16:34 655K
20260430T12Z_MSC_GDPS_WindSpeed_IsbL-0005_LatLon0.15_PT225H.grib2 2026-04-30 16:34 696K
20260430T12Z_MSC_GDPS_WindSpeed_IsbL-0500_LatLon0.15_PT225H.grib2 2026-04-30 16:34 1.1M
20260430T12Z_MSC_GDPS_WindSpeed_IsbL-0700_LatLon0.15_PT225H.grib2 2026-04-30 16:34 1.5M
20260430T12Z_MSC_GDPS_WindSpeed_IsbL-0850_LatLon0.15_PT225H.grib2 2026-04-30 16:34 1.7M
20260430T12Z_MSC_GDPS_WindSpeed_IsbL-0925_LatLon0.15_PT225H.grib2 2026-04-30 16:34 1.8M
20260430T12Z_MSC_GDPS_WindSpeed_IsbL-1000_LatLon0.15_PT225H.grib2 2026-04-30 16:34 1.9M
20260430T12Z_MSC_GDPS_WindU_AGL-10m_LatLon0.15_PT225H.grib2 2026-04-30 16:34 1.3M
20260430T12Z_MSC_GDPS_WindU_AGL-120m_LatLon0.15_PT225H.grib2 2026-04-30 16:34 1.0M
20260430T12Z_MSC_GDPS_WindU_AGL-40m_LatLon0.15_PT225H.grib2 2026-04-30 16:34 972K
20260430T12Z_MSC_GDPS_WindU_AGL-80m_LatLon0.15_PT225H.grib2 2026-04-30 16:34 1.0M
20260430T12Z_MSC_GDPS_WindU_IsbL-0001_LatLon0.15_PT225H.grib2 2026-04-30 16:34 509K
20260430T12Z_MSC_GDPS_WindU_IsbL-0005_LatLon0.15_PT225H.grib2 2026-04-30 16:34 696K
20260430T12Z_MSC_GDPS_WindU_IsbL-0500_LatLon0.15_PT225H.grib2 2026-04-30 16:34 1.1M
20260430T12Z_MSC_GDPS_WindU_IsbL-0700_LatLon0.15_PT225H.grib2 2026-04-30 16:34 1.2M
20260430T12Z_MSC_GDPS_WindU_IsbL-0850_LatLon0.15_PT225H.grib2 2026-04-30 16:34 1.4M
20260430T12Z_MSC_GDPS_WindU_IsbL-0925_LatLon0.15_PT225H.grib2 2026-04-30 16:34 1.5M
20260430T12Z_MSC_GDPS_WindU_IsbL-1000_LatLon0.15_PT225H.grib2 2026-04-30 16:34 1.4M
20260430T12Z_MSC_GDPS_WindV_AGL-10m_LatLon0.15_PT225H.grib2 2026-04-30 16:34 1.6M
20260430T12Z_MSC_GDPS_WindV_AGL-120m_LatLon0.15_PT225H.grib2 2026-04-30 16:34 1.0M
20260430T12Z_MSC_GDPS_WindV_AGL-40m_LatLon0.15_PT225H.grib2 2026-04-30 16:34 1.0M
20260430T12Z_MSC_GDPS_WindV_AGL-80m_LatLon0.15_PT225H.grib2 2026-04-30 16:34 1.0M
20260430T12Z_MSC_GDPS_WindV_IsbL-0001_LatLon0.15_PT225H.grib2 2026-04-30 16:34 693K
20260430T12Z_MSC_GDPS_WindV_IsbL-0005_LatLon0.15_PT225H.grib2 2026-04-30 16:34 776K
20260430T12Z_MSC_GDPS_WindV_IsbL-0500_LatLon0.15_PT225H.grib2 2026-04-30 16:34 1.1M
20260430T12Z_MSC_GDPS_WindV_IsbL-0700_LatLon0.15_PT225H.grib2 2026-04-30 16:34 1.2M
20260430T12Z_MSC_GDPS_WindV_IsbL-0850_LatLon0.15_PT225H.grib2 2026-04-30 16:34 1.4M
20260430T12Z_MSC_GDPS_WindV_IsbL-0925_LatLon0.15_PT225H.grib2 2026-04-30 16:34 1.5M
20260430T12Z_MSC_GDPS_WindV_IsbL-1000_LatLon0.15_PT225H.grib2 2026-04-30 16:34 1.7M